Regional Weather Roundup
Issued by NWS

Home | Current Version | Previous Version | Graphics & Text | Print | Product List | Glossary On
Versions: 1 2 3 4 5 6 7 8 9 10 11 12 13 14 15 16 17 18 19 20 21 22 23 24 25 26 27 28 29 30 31 32 33 34 35 36 37 38 39 40 41 42 43 44 45 46 47 48 49 50
000
ASUS45 KABQ 180201
RWRNM
WEATHER ROUNDUP FOR NEW MEXICO
NATIONAL WEATHER SERVICE ALBUQUERQUE NM
800 PM MDT WED SEP 17 2014

NOTE: "FAIR" MEANS FEW OR NO CLOUDS BELOW 12,000 FEET AGL WITH NO
       SIGNIFICANT WEATHER OR OBSTRUCTIONS TO VISION.

      THIS PRODUCT IS RELEASED AS TWO VERSIONS.  ONE VERSION NEAR
      THE TOP OF THE HOUR CONTAINING PRELIMINARY DATA FROM ALBUQUERQUE
      AND OTHER STATIONS.  A FINAL VERSION WITH ADDITIONAL DATA IS
      ISSUED ABOUT 10 MINUTES AFTER THE HOUR.

NMZ501-503-504-510>518-180300-
NORTHWEST PLATEAU/NORTHCENTRAL MOUNTAINS

CITY           SKY/WX    TMP DP  RH WIND       PRES   REMARKS
FARMINGTON     PTCLDY    71  46  40 SE15      30.09R
LOS ALAMOS     CLOUDY    64  40  40 SW5       30.22R
SANTA FE       CLOUDY    65  49  56 NE3       30.15R
TAOS           MOCLDY    61  48  63 W3        30.21R
ANGEL FIRE     FAIR      55  45  69 CALM      30.29R

$$
NMZ402-403-502-505>509-180300-
WESTCENTRAL MOUNTAINS/SOUTHWEST MOUNTAINS

CITY           SKY/WX    TMP DP  RH WIND       PRES   REMARKS
GALLUP         PTCLDY    66  45  46 E9        30.15R
GRANTS         CLOUDY    61  48  63 S7        30.18S
SILVER CITY    LGT RAIN  63  59  88 CALM      30.13S

$$
NMZ407-409-411-412-180300-
SOUTHERN DESERTS

CITY           SKY/WX    TMP DP  RH WIND       PRES   REMARKS
LORDSBURG      LGT RAIN  63  61  94 E8        30.02S
DEMING         LGT RAIN  65  63  93 N7        30.04R
LAS CRUCES     CLOUDY    67  62  85 W22G28    30.05R
ALAMOGORDO     CLOUDY    73  64  73 NW6       30.00R
T OR C         CLOUDY    70  61  73 N10       30.04R

$$
NMZ519>523-180300-
CENTRAL VALLEYS/CENTRAL HIGHLANDS

CITY           SKY/WX    TMP DP  RH WIND       PRES   REMARKS
ALBUQUERQUE    CLOUDY    67  59  75 CALM      30.10R
DOUBLE EAGLE   CLOUDY    64  57  77 W3        30.14R
CLINES CORNERS CLOUDY    61  50  67 SW6       30.18R
BELEN          FAIR      66  62  87 CALM      30.09R
SOCORRO        FAIR      67  62  82 NW3       30.06S

$$
NMZ524>526-539-540-180300-
SOUTHCENTRAL MOUNTAINS

CITY           SKY/WX    TMP DP  RH WIND       PRES   REMARKS
RUIDOSO        NOT AVBL

$$
NMZ527>531-180300-
NORTHEAST HIGHLANDS/NORTHEAST PLAINS

CITY           SKY/WX    TMP DP  RH WIND       PRES   REMARKS
LAS VEGAS      CLOUDY    61  50  67 S5        30.18R
RATON          PTCLDY    62  50  64 SW6       30.12R
CLAYTON        CLOUDY    65  53  65 SW8       30.05R

$$
NMZ532>537-180300-
EASTCENTRAL PLAINS

CITY           SKY/WX    TMP DP  RH WIND       PRES   REMARKS
TUCUMCARI      CLOUDY    69  59  70 NW5       29.99R
CANNON AFB     NOT AVBL
CLOVIS AIRPORT   N/A     66  63  88 S5        30.06R

$$
NMZ028-029-538-180300-
SOUTHEAST PLAINS

CITY           SKY/WX    TMP DP  RH WIND       PRES   REMARKS
ROSWELL        MOCLDY    70  66  87 SW5       29.99S
CARLSBAD       PTCLDY    75  75 100 NW6       29.95S
HOBBS          CLOUDY    70  68  94 NE12      30.02R


$$



USA.gov is the U.S. government's official web portal to all federal, state and local government web resources and services.